Theta_e
349 349 349 349 348 346 345 345 345 346 345 345 344 342 342 342 342 341 343 343 343 343 346 348 349 350 350 351 352 353 355 355 356 357 356 355 354 355 355 355 356 356 357 357 355 353 353 352 354 355 355 357 358 357 356 355 356 355 354 355 355 355 355 353 353 352 354 356 354 354 355 353 348 345 347 347 345 346 345 345 348 349 350 353 353
349 349 348 348 347 347 346 345 344 344 344 344 344 343 342 342 341 342 343 344 343 343 343 345 346 349 349 349 349 351 353 355 355 356 355 355 354 355 356 356 357 357 357 356 356 355 354 354 353 353 355 357 357 357 358 357 357 357 355 355 356 356 356 355 354 354 354 356 356 356 355 354 351 348 349 350 349 348 348 347 345 346 349 353 354
349 349 349 348 347 346 346 345 343 343 342 342 344 344 343 342 341 342 343 343 342 342 343 343 344 346 347 348 349 349 351 353 355 356 356 355 354 355 356 356 356 357 357 357 356 355 355 355 354 353 353 355 357 357 357 358 358 358 357 356 356 356 356 356 356 355 356 356 357 356 354 354 353 351 350 351 351 351 352 350 347 346 349 353 355
349 349 349 348 347 346 346 346 345 344 342 341 342 343 344 344 343 343 342 342 341 340 340 341 343 345 347 347 348 349 349 350 354 355 356 356 355 354 355 355 355 356 356 356 356 355 354 355 354 353 353 354 355 356 357 358 358 358 358 358 357 356 356 357 357 357 357 357 357 356 355 354 353 352 352 352 351 352 352 350 349 347 348 353 357
349 350 350 350 348 348 346 346 345 345 344 342 341 342 343 344 344 344 343 342 340 338 337 338 342 345 346 346 347 346 345 346 351 354 356 356 355 354 355 355 355 355 354 354 354 353 353 352 352 352 353 353 353 354 356 356 357 357 357 357 356 356 355 356 357 357 357 357 357 356 355 355 353 353 353 355 353 351 349 348 349 349 348 351 356
349 349 350 350 350 349 348 347 346 345 344 344 341 341 341 341 342 343 343 343 341 340 338 338 340 342 343 343 342 341 341 343 347 351 354 356 356 355 355 355 355 355 354 352 352 351 350 349 350 353 353 353 351 352 354 355 355 355 354 355 354 354 355 356 356 356 357 356 357 356 356 356 355 354 355 356 356 354 350 349 350 348 350 353 356
349 350 350 351 351 350 349 348 348 346 345 345 343 342 341 341 341 341 341 342 342 342 342 341 341 341 341 341 341 340 340 342 345 348 351 354 356 355 355 355 355 355 355 354 352 353 351 350 350 351 352 351 351 351 353 355 355 355 354 354 353 354 356 356 356 357 357 356 356 357 357 357 357 356 356 357 357 356 353 353 353 350 351 355 356
350 351 351 351 351 351 351 350 349 348 347 346 345 344 343 342 341 341 341 341 342 343 344 344 343 343 343 342 342 341 342 343 345 347 350 353 355 356 356 356 356 355 356 355 355 355 354 353 352 351 351 352 352 351 352 353 356 356 356 356 355 355 356 357 357 357 356 357 356 357 357 357 357 357 357 356 356 355 354 355 355 353 353 355 357
351 352 351 352 352 352 351 351 350 349 349 348 347 346 345 344 343 342 341 341 341 342 343 344 345 345 345 345 344 345 345 345 346 348 350 352 353 354 355 355 356 356 355 355 355 356 356 355 353 351 350 352 353 353 352 352 354 355 355 356 356 356 356 356 357 357 357 356 356 356 357 357 357 356 356 356 356 355 356 356 355 354 353 355 357
353 353 353 352 352 352 352 352 351 351 350 349 348 347 346 346 344 343 343 342 342 342 342 344 345 346 346 347 346 347 348 348 347 348 350 351 352 353 355 355 356 356 356 356 357 356 355 354 353 351 350 350 352 354 355 354 354 353 353 354 355 355 356 356 356 356 356 356 356 357 357 356 356 356 356 356 355 355 355 356 355 353 353 355 356
355 354 354 354 353 353 353 352 353 352 351 350 349 348 347 347 345 345 344 343 343 343 343 343 345 346 346 347 348 348 349 349 348 348 349 351 352 353 354 355 355 356 356 357 357 356 355 354 352 351 350 350 350 350 351 352 352 353 353 353 354 356 357 357 356 356 356 356 356 357 357 356 355 356 355 355 354 354 354 355 355 354 354 355 354
356 356 355 355 354 355 354 354 354 353 352 351 350 350 349 348 347 346 345 344 344 344 343 344 344 345 345 347 347 348 348 349 348 348 349 350 351 353 354 354 355 356 356 356 357 356 356 355 353 353 351 350 348 347 347 347 348 348 350 350 352 354 356 357 357 357 357 356 357 356 356 356 356 355 355 354 353 354 354 354 354 354 354 354 351
357 356 357 356 356 356 355 355 355 353 353 353 351 350 349 348 349 348 347 346 345 345 345 344 344 344 345 346 347 348 348 348 348 349 348 350 350 352 354 355 355 355 355 355 356 356 356 356 355 354 352 350 350 349 349 347 346 347 349 350 351 351 354 355 356 357 357 357 357 357 356 356 356 356 355 353 354 354 354 354 354 353 352 352 351
359 359 358 357 357 357 356 356 356 355 355 354 352 352 351 350 350 348 347 347 347 346 346 346 346 346 345 346 347 348 348 348 349 349 349 350 351 352 354 355 355 355 355 355 355 356 356 356 356 355 352 352 351 351 351 349 348 350 351 351 351 350 351 352 353 356 357 357 358 357 356 356 355 355 353 353 355 355 355 355 353 353 353 354 354
360 360 360 359 358 358 358 357 357 357 356 356 354 353 352 351 351 350 350 349 348 348 348 348 347 347 348 348 348 348 349 348 349 350 350 350 351 352 354 355 355 355 355 355 355 355 355 355 356 355 354 353 352 352 351 351 351 352 352 351 351 350 350 350 350 352 354 355 355 355 354 354 354 353 353 353 355 355 355 354 354 354 355 355 357
357 359 360 360 360 360 360 359 358 358 357 357 356 355 354 353 352 351 351 350 349 350 349 349 350 349 349 349 350 350 350 349 350 350 350 351 352 354 355 355 356 355 355 356 356 355 356 355 356 355 354 354 353 352 353 353 353 353 354 352 352 352 351 350 349 350 352 354 355 353 352 352 352 352 353 353 354 355 354 354 354 355 355 354 355
355 356 357 358 359 359 359 360 360 359 359 358 357 356 356 355 354 353 352 351 350 351 350 350 351 351 351 351 351 352 351 351 352 351 352 352 353 354 355 355 356 356 355 355 355 355 356 356 355 355 355 354 354 352 353 354 354 354 354 354 354 354 353 350 350 350 352 354 355 353 351 351 350 351 351 353 353 354 355 354 356 356 355 352 353
354 354 355 356 357 356 356 358 359 360 360 359 358 358 357 357 356 355 354 353 352 352 352 351 352 352 352 352 353 352 352 352 352 352 353 353 353 354 354 355 355 356 355 356 356 356 356 356 356 355 355 354 353 353 354 354 355 355 355 354 355 354 354 352 352 352 353 352 352 351 350 350 349 349 351 353 354 356 356 357 358 357 355 352 353
356 357 357 356 357 357 357 357 359 361 361 360 360 360 358 358 357 356 355 355 353 353 353 352 352 353 353 353 353 353 353 353 353 353 353 353 354 354 354 354 355 355 355 355 355 356 355 355 356 355 355 354 354 354 354 355 355 355 355 355 355 355 354 353 354 354 353 353 352 351 351 350 350 351 352 353 356 358 359 358 359 358 356 354 354
355 358 360 360 359 359 358 359 361 363 363 361 361 360 359 359 358 357 356 355 355 354 354 353 354 354 354 354 354 354 354 354 354 354 354 354 354 354 355 354 354 355 355 355 355 356 356 355 355 356 355 355 355 354 354 355 355 355 356 355 355 355 353 354 354 354 353 353 352 353 352 352 352 353 353 355 356 357 358 358 358 360 359 356 355
349 353 357 359 360 361 361 362 362 363 363 362 362 361 360 359 358 358 357 357 355 355 354 354 355 355 354 355 355 355 355 355 355 355 355 354 355 355 355 355 355 354 355 355 355 355 355 355 356 355 355 355 354 355 355 355 356 355 356 356 355 354 353 355 355 354 354 354 354 354 354 354 354 354 355 355 357 357 358 358 359 361 360 358 357
344 347 352 355 358 360 363 364 363 364 364 363 363 362 361 360 360 359 358 357 356 356 355 355 355 355 355 356 356 356 356 355 356 355 355 356 355 356 355 356 355 355 355 355 355 355 355 356 355 355 354 355 354 355 354 355 356 356 356 355 355 354 355 355 355 355 355 355 354 355 355 355 356 357 357 358 358 358 359 360 360 360 360 359 360
340 343 348 351 355 359 362 364 364 364 365 364 364 363 362 361 361 359 358 358 357 356 356 355 355 356 356 356 356 356 357 356 357 356 356 356 356 356 356 356 356 356 356 355 355 355 356 356 355 355 355 354 354 354 354 355 356 356 356 355 355 355 357 358 358 358 357 356 356 355 356 356 357 358 358 359 359 360 360 360 360 360 359 359 360
339 342 347 350 353 357 361 364 365 364 365 365 364 364 363 362 361 360 359 358 358 357 357 356 356 356 356 357 357 357 357 357 357 357 356 357 357 356 357 356 356 356 356 356 356 356 356 356 356 356 355 355 354 354 354 355 357 356 355 356 355 356 358 358 359 359 359 358 356 356 358 358 359 359 359 359 359 360 361 361 360 359 359 358 359
338 341 345 350 353 357 360 364 365 365 365 366 365 364 363 362 361 360 360 359 358 358 358 357 357 356 356 356 357 357 358 357 357 358 357 357 357 357 357 357 357 357 357 357 357 357 357 357 357 356 356 356 356 357 357 357 357 357 356 356 355 355 355 355 354 355 355 356 356 357 358 357 357 358 358 359 359 360 361 360 359 358 357 357 357
338 341 344 348 352 356 359 363 364 365 365 365 365 365 364 363 362 361 361 360 359 358 358 357 357 357 356 357 357 357 358 357 357 357 357 357 358 357 357 357 357 357 357 358 358 358 358 358 358 357 358 358 358 358 358 358 358 358 357 357 355 355 355 354 353 353 353 354 355 355 356 356 355 356 358 358 360 361 360 359 358 356 354 355 356
338 341 343 347 351 356 360 362 364 365 365 365 365 364 364 363 362 361 361 360 360 359 359 358 357 357 357 357 357 357 357 357 357 358 357 357 357 357 357 358 357 357 358 358 358 358 358 358 359 358 358 359 358 358 359 359 358 358 357 358 357 356 356 356 356 356 356 355 356 356 357 357 357 357 358 359 360 359 359 358 356 354 354 354 353
338 340 342 347 352 356 359 361 362 364 365 365 365 365 364 363 363 362 362 361 361 360 360 359 358 358 357 357 357 357 358 357 358 358 358 358 358 357 357 357 357 357 358 358 359 359 358 357 357 357 358 358 358 358 358 358 358 358 358 358 358 358 358 357 357 357 358 358 357 357 357 358 358 358 359 359 359 359 358 357 355 354 354 354 351
338 340 344 348 353 355 355 357 361 364 365 365 365 365 365 364 364 363 363 362 362 362 361 360 360 359 358 358 358 357 358 357 358 358 358 358 358 358 358 358 357 357 358 357 357 358 356 354 354 356 356 356 357 357 357 358 358 358 358 359 359 358 359 359 359 360 361 361 360 359 359 359 358 358 359 358 359 359 357 356 355 355 355 355 351
339 341 343 347 350 351 351 355 359 362 364 365 365 366 366 365 365 364 364 363 363 363 363 362 362 360 360 359 358 358 358 358 358 358 358 358 359 358 358 358 358 357 357 357 356 354 352 352 353 353 354 355 355 356 356 356 357 357 359 359 359 359 360 360 362 362 362 361 361 361 361 360 358 359 358 358 358 359 357 356 355 355 356 354 350
337 338 339 342 345 347 350 354 358 361 364 365 366 366 365 365 365 365 364 364 364 363 363 362 362 361 361 360 359 359 359 359 358 358 359 359 358 359 359 359 359 359 357 356 353 350 350 351 351 352 352 353 354 354 355 356 356 356 357 358 359 360 361 361 362 362 360 360 360 359 359 358 358 359 358 358 358 358 356 355 355 356 356 353 351
333 334 336 338 341 344 349 353 356 360 364 365 365 367 365 365 364 364 364 364 364 363 363 363 362 362 362 361 361 360 359 359 359 358 358 359 359 359 359 359 359 359 358 355 351 350 349 349 350 351 352 352 353 354 354 355 356 356 357 358 359 360 361 361 361 360 359 359 358 357 358 357 358 358 357 357 357 357 356 355 355 355 354 352 350
329 331 334 336 337 339 345 350 354 358 363 364 366 367 366 364 364 364 364 364 364 363 363 363 363 363 362 362 361 361 360 360 359 359 359 359 359 360 360 360 360 359 357 353 350 350 349 349 350 351 352 352 353 353 354 354 355 354 354 354 354 356 357 358 358 358 358 358 357 357 357 357 356 357 356 356 357 356 355 356 355 354 352 351 349
327 329 332 333 332 333 338 344 349 354 359 361 363 364 365 365 365 364 364 364 362 362 362 364 364 363 363 362 362 361 361 361 361 360 359 358 359 359 360 361 360 359 356 354 352 351 351 350 350 350 351 352 353 354 354 354 353 352 350 348 347 349 350 351 353 355 357 357 357 356 357 356 356 356 356 355 355 355 355 354 353 351 350 348 347
325 326 328 329 328 329 331 337 343 348 354 359 361 363 365 365 364 365 365 364 362 362 362 364 364 364 363 363 362 362 362 361 361 361 360 359 358 358 359 359 356 354 353 352 352 352 352 351 350 351 351 353 354 354 354 353 352 351 349 347 346 347 347 347 350 354 356 357 357 356 357 356 355 355 355 355 354 354 352 350 348 348 347 346 344
323 324 324 324 325 326 328 332 337 342 347 353 358 361 363 362 361 362 363 363 362 362 362 362 362 362 363 364 364 363 363 362 361 360 359 359 358 357 357 356 354 353 353 353 353 352 352 351 351 351 352 353 353 353 352 351 350 349 348 348 348 348 346 345 347 351 354 355 356 357 357 356 355 354 354 354 353 352 350 347 345 345 345 343 341
322 322 322 322 322 324 326 330 334 338 341 345 350 353 356 357 357 358 359 360 360 361 361 361 362 361 361 363 364 365 364 363 361 360 358 357 356 355 356 355 354 353 353 353 353 352 351 350 351 351 352 353 353 352 350 350 348 348 348 347 348 347 347 346 346 348 352 356 357 357 356 356 355 354 353 352 351 349 347 345 343 342 340 338 338
321 321 321 321 321 321 323 327 331 334 337 339 342 345 347 349 351 353 355 356 358 360 360 361 360 360 361 363 364 364 363 360 359 358 357 355 354 354 354 355 354 354 353 353 354 353 351 351 352 352 352 352 352 351 349 348 348 348 348 347 347 349 349 348 347 349 354 357 356 355 355 355 354 353 351 349 347 346 345 343 341 338 335 334 336
320 320 320 320 320 320 321 324 326 328 331 333 337 341 345 346 347 349 352 354 355 357 358 357 356 357 358 360 361 360 357 355 355 357 357 357 356 355 354 353 353 353 354 353 353 352 351 351 351 350 351 351 350 349 349 348 348 349 348 348 349 350 350 350 351 353 356 356 354 354 353 352 351 350 348 347 346 345 342 340 337 334 333 334 335
319 319 319 319 318 319 320 321 322 323 325 327 330 335 341 345 347 349 350 351 352 353 354 355 354 355 356 358 360 359 356 355 356 357 357 356 356 354 353 351 352 353 353 352 352 352 351 352 351 349 349 349 349 349 349 348 349 348 347 349 350 351 352 352 354 355 354 354 352 351 349 347 346 345 344 343 343 341 338 335 333 334 334 334 334
317 318 318 317 317 318 319 319 319 320 322 324 326 329 334 340 345 348 348 349 350 350 351 352 352 353 354 356 358 359 358 357 357 358 357 356 354 351 350 351 351 352 353 352 353 353 351 350 349 348 347 347 347 348 349 349 348 348 349 350 352 352 352 351 351 350 350 349 349 347 345 344 343 343 340 338 336 335 335 334 334 335 336 335 335
316 317 317 316 316 317 317 317 317 318 319 320 322 324 327 332 337 343 347 349 349 348 349 350 350 350 350 351 353 355 357 357 357 357 357 355 353 350 349 349 350 350 351 352 351 351 349 347 346 346 346 346 346 347 349 349 348 348 349 350 349 348 347 346 345 345 346 345 344 344 342 341 339 337 335 333 331 333 335 335 336 335 335 335 335
315 315 315 315 315 315 315 315 315 316 316 317 318 320 322 326 331 336 342 346 348 348 348 348 348 348 349 349 350 352 353 353 353 353 352 350 348 345 344 344 345 346 347 348 347 345 345 343 341 341 342 342 343 345 347 348 349 349 348 346 345 345 344 342 342 342 342 341 340 339 338 337 335 334 334 333 333 334 335 335 335 334 334 335 335
313 314 313 313 313 313 313 313 314 314 314 315 315 316 318 321 325 329 333 339 344 347 347 347 347 347 346 346 346 347 348 348 347 345 343 341 339 337 337 338 338 339 341 342 340 337 336 335 336 338 339 339 340 343 344 346 346 346 345 344 343 342 341 339 339 339 339 338 337 337 336 335 335 335 335 335 335 335 334 333 333 333 333 333 332
312 312 312 311 311 311 311 311 312 312 312 312 313 313 313 315 318 321 324 328 332 335 337 337 337 337 336 334 334 334 335 334 331 329 330 332 332 331 330 329 330 331 331 330 329 328 329 331 334 336 336 334 333 335 337 340 341 341 340 341 341 339 337 337 337 336 336 336 336 335 334 334 334 334 334 334 333 332 331 331 331 330 329 327 326
311 311 311 310 310 310 310 310 310 310 310 310 311 311 311 311 313 315 316 317 319 321 323 323 324 324 323 323 322 321 321 320 319 319 322 324 323 321 320 320 321 321 321 321 321 322 324 326 327 327 327 328 330 330 329 330 333 334 335 335 335 334 333 333 333 332 333 333 334 333 333 332 331 331 331 330 329 328 327 326 325 324 323 321 320
309 309 309 309 308 308 308 308 308 308 308 309 309 309 309 310 310 310 311 312 312 313 315 315 315 315 314 314 314 313 312 311 310 310 311 310 309 309 311 313 315 315 315 315 316 316 316 317 319 319 319 321 324 324 323 324 326 327 328 329 329 329 329 329 329 329 329 330 330 331 330 329 326 325 325 324 323 322 321 319 319 318 318 317 317
308 308 308 308 307 307 306 307 307 306 306 307 307 307 308 308 308 308 308 308 308 309 309 309 309 309 309 308 308 307 306 304 303 302 302 302 302 302 304 307 309 311 311 311 311 312 312 313 315 317 316 316 317 318 319 319 320 322 323 324 324 324 325 325 325 325 325 326 326 327 326 324 322 320 320 319 319 318 317 316 316 315 315 315 315
307 307 307 307 306 306 305 305 305 305 305 305 305 306 306 306 306 306 306 306 306 306 306 306 305 305 305 304 304 303 302 301 301 300 300 300 300 300 301 301 303 305 307 307 308 310 311 311 312 314 315 315 315 315 316 316 317 319 320 320 321 322 322 323 323 323 323 323 323 323 323 322 320 319 318 318 318 317 316 315 315 314 314 314 313
306 306 306 305 305 305 305 304 304 304 304 304 304 304 304 304 304 304 305 304 304 304 304 304 303 303 303 302 302 301 300 300 299 299 299 298 299 300 302 301 301 302 303 304 305 307 308 309 309 310 311 311 311 312 312 313 314 315 316 316 317 319 320 320 320 320 320 320 320 320 320 319 318 317 317 316 316 315 314 313 313 313 312 311 310
305 305 304 305 304 304 304 304 303 304 304 304 304 304 304 303 303 303 303 303 303 303 302 302 302 302 301 301 300 299 299 298 297 297 297 297 297 298 299 299 299 300 301 303 304 305 306 307 307 308 308 309 308 308 309 309 309 310 311 312 314 314 315 315 315 315 315 315 315 316 316 316 315 314 313 312 312 311 310 309 309 308 308 307 307
Wind_Speed
42 42 42 41 40 40 41 41 40 39 39 39 38 39 39 39 38 37 35 34 33 32 32 31 30 29 28 27 27 26 25 24 24 23 23 23 22 20 19 20 21 20 19 18 17 18 19 20 19 17 15 13 12 11 10 9 9 9 9 8 8 7 8 8 8 10 14 14 13 13 14 14 14 14 16 18 17 16 15 14 15 15 15 15 14
41 41 40 40 40 41 41 41 41 39 38 38 39 39 39 40 40 38 37 36 34 33 33 32 31 30 29 28 27 26 25 25 25 25 25 25 24 23 22 22 23 23 22 22 21 20 19 20 21 20 18 16 14 12 12 11 10 10 10 10 11 10 10 11 10 11 15 18 18 17 16 16 17 18 19 20 19 19 17 16 16 16 15 14 14
41 40 39 39 41 40 40 40 40 39 38 38 38 39 39 40 39 38 38 37 35 34 34 33 32 31 30 29 28 27 26 26 26 26 27 27 27 27 26 25 25 25 25 25 24 23 22 22 22 22 20 19 18 15 14 13 12 12 13 13 14 13 12 13 13 13 16 20 20 19 19 19 21 21 20 21 20 20 20 19 18 17 15 14 14
39 39 39 39 40 39 39 39 38 38 39 39 39 39 39 39 38 38 38 37 36 35 34 34 33 33 32 31 30 29 28 28 28 28 29 29 29 29 29 29 28 28 28 29 28 27 26 25 24 22 22 22 22 20 18 17 17 17 17 17 17 16 15 14 15 15 17 19 20 21 21 21 23 22 22 22 21 20 20 20 19 18 16 13 13
38 39 39 39 38 39 39 38 38 38 40 40 40 40 39 38 38 38 38 37 36 36 35 35 34 34 34 34 33 32 31 31 30 30 31 31 31 31 31 31 31 30 30 30 30 30 29 29 27 24 23 23 24 24 22 21 20 20 21 20 19 18 17 16 16 16 17 19 21 22 22 22 23 23 22 21 22 23 23 21 20 19 17 15 13
38 38 38 38 38 38 39 39 39 40 41 41 41 41 39 38 37 37 37 37 36 36 36 36 36 36 36 35 35 34 33 32 32 32 32 32 32 32 31 31 31 31 31 30 30 30 30 30 29 27 26 25 25 25 24 23 22 22 22 22 21 20 19 18 17 17 18 19 21 22 22 22 23 24 22 20 21 24 25 25 23 21 20 18 15
37 37 38 37 37 38 39 40 40 40 40 41 41 40 40 39 38 37 37 36 36 35 35 36 37 37 37 37 36 36 34 34 34 33 33 33 33 33 32 32 31 31 31 31 30 30 30 30 30 29 28 27 26 26 25 24 23 23 23 22 21 20 20 19 19 19 20 20 20 22 22 22 23 23 22 21 21 21 22 24 26 25 23 20 18
37 37 37 37 38 39 40 39 40 40 40 40 39 39 39 39 39 38 37 36 36 36 35 35 36 37 37 37 37 36 35 35 34 34 34 34 33 33 33 33 32 31 31 31 31 31 31 31 30 30 29 28 27 27 27 26 26 25 25 24 22 21 21 21 21 21 21 21 21 22 22 22 24 24 23 21 20 19 19 20 25 26 24 20 19
37 38 37 38 39 39 39 38 39 39 39 39 39 40 39 39 39 38 37 37 37 37 36 35 35 35 36 36 36 36 36 36 36 35 35 35 34 34 34 34 33 33 32 32 32 32 32 32 32 31 30 29 28 27 27 27 27 28 27 26 25 23 22 22 22 22 22 21 22 23 21 23 25 23 22 20 19 20 19 19 22 24 24 22 19
38 37 38 39 39 39 38 38 38 38 39 39 40 40 39 39 38 38 38 38 38 37 36 35 35 35 35 35 35 35 36 37 37 37 36 36 35 35 35 35 34 33 33 32 32 33 33 33 33 32 32 31 30 30 29 28 28 28 28 27 26 24 23 23 22 22 22 21 23 22 20 23 26 23 21 21 21 21 20 18 18 21 23 22 18
37 38 38 39 38 37 37 37 37 38 39 39 39 39 39 38 37 37 38 38 38 37 36 36 36 35 35 35 35 35 36 37 37 37 37 37 36 36 35 35 35 34 34 33 33 34 34 34 33 33 32 32 32 31 30 29 28 28 27 26 26 25 25 25 24 24 22 22 23 22 20 24 28 24 21 23 23 21 20 18 17 17 18 17 16
36 37 38 37 37 37 37 37 37 37 38 39 39 39 38 37 37 37 37 37 37 37 37 37 37 36 35 35 35 36 37 38 38 38 38 38 38 37 36 36 35 34 34 34 34 35 34 34 33 33 32 32 32 32 32 31 30 29 28 27 26 26 27 27 27 26 25 23 23 24 24 25 27 26 23 24 23 21 20 19 17 16 16 17 19
35 36 36 36 36 37 37 37 37 37 38 38 38 37 36 37 37 37 37 37 37 37 37 38 37 37 36 35 36 36 37 38 38 38 39 39 39 38 37 36 36 35 35 35 35 35 34 34 34 33 33 32 31 31 31 31 31 30 29 28 27 26 27 28 28 28 28 27 26 28 29 27 27 28 26 25 24 23 22 22 20 18 17 19 21
29 32 34 36 37 37 37 37 37 38 38 38 37 37 36 37 37 38 37 36 36 37 38 38 38 38 37 37 37 37 37 38 39 39 40 40 40 39 38 37 36 36 36 36 35 35 35 34 34 35 35 33 32 31 31 31 31 30 30 29 28 27 26 27 28 28 29 30 30 33 34 31 31 32 30 28 27 26 26 25 23 20 20 21 22
21 23 28 33 35 37 38 38 37 37 37 37 37 37 37 37 37 37 36 36 37 38 38 38 38 38 38 38 37 37 38 39 39 39 40 40 40 40 39 38 37 36 37 36 36 36 36 36 36 36 36 35 34 33 32 31 30 30 30 30 29 29 28 28 28 28 29 30 31 33 34 33 33 34 32 31 31 29 28 28 24 21 21 22 23
20 20 22 25 29 33 35 36 36 36 36 36 36 36 37 37 38 37 36 36 37 37 37 38 38 38 38 37 37 37 38 39 39 39 40 40 40 39 39 39 38 37 37 37 37 38 38 37 37 37 37 37 36 35 33 31 30 29 30 30 30 31 31 29 28 28 29 29 30 30 30 29 30 31 32 32 31 29 28 27 25 21 20 20 22
17 17 16 16 21 27 30 32 34 35 35 35 35 36 37 37 38 38 36 36 36 36 37 37 38 38 38 38 38 38 39 39 39 40 40 40 39 39 39 39 38 38 38 38 38 38 39 38 38 38 38 38 38 37 34 32 30 30 30 30 31 32 33 32 30 30 30 30 30 29 28 27 26 27 28 28 26 26 26 26 25 22 18 16 18
12 14 14 13 15 19 25 30 32 33 34 36 36 37 38 38 39 38 38 37 37 37 37 37 37 38 39 39 39 40 40 40 40 40 40 40 39 40 40 39 38 38 38 39 39 38 39 39 38 38 39 39 39 38 36 33 31 31 31 31 30 31 34 34 32 31 31 31 30 30 29 28 27 26 25 23 22 22 25 26 25 22 19 17 17
5 9 13 16 17 17 21 27 31 33 35 36 37 38 39 39 39 39 38 38 38 38 37 37 37 38 39 39 40 40 41 40 40 41 41 40 40 40 39 38 37 37 38 38 38 38 38 39 39 39 39 40 40 39 37 34 33 32 32 30 29 32 35 34 32 31 31 30 29 29 27 26 25 24 23 22 20 21 23 24 24 23 22 21 20
9 8 8 12 17 18 17 23 31 35 35 37 38 39 39 39 38 38 37 37 37 37 36 37 37 37 38 38 39 40 41 41 40 41 42 41 40 40 39 38 37 37 37 37 37 37 38 38 39 40 40 41 41 41 39 37 35 34 32 30 30 33 35 33 31 30 29 28 28 27 26 25 25 24 23 22 21 22 22 22 22 23 23 22 21
12 11 11 11 12 12 12 19 30 36 38 38 38 39 39 39 38 38 37 36 36 36 36 36 36 36 37 37 38 39 41 41 41 41 42 42 41 40 40 40 39 38 38 37 37 37 37 38 39 40 41 41 41 41 40 39 37 35 34 33 34 34 34 32 31 30 28 27 27 27 27 27 26 25 25 24 23 22 22 21 21 21 22 22 20
14 13 14 15 15 11 9 16 27 36 38 38 38 38 38 38 38 37 37 36 36 36 36 35 34 34 35 37 38 39 40 41 41 41 42 42 42 41 41 41 41 40 38 37 37 38 38 39 39 39 39 39 39 39 38 38 38 37 37 36 36 35 34 34 33 31 29 28 27 27 28 27 27 26 26 25 24 23 22 21 20 20 21 23 22
16 16 16 15 16 15 14 17 24 33 37 38 39 39 38 37 37 37 36 35 35 34 35 34 33 32 33 35 37 38 39 39 41 42 42 43 43 43 43 42 42 42 40 39 39 40 40 40 40 39 38 37 36 36 35 35 36 36 36 36 36 35 34 33 32 31 30 29 28 28 28 28 28 27 26 25 25 24 23 21 20 20 20 22 22
16 16 16 15 15 16 17 18 22 30 36 38 38 38 38 37 37 36 36 35 33 33 33 33 32 31 32 33 34 35 36 37 39 41 43 43 44 44 44 43 43 43 43 42 41 41 41 41 41 40 38 37 36 35 34 34 34 34 34 35 35 33 31 31 30 30 29 29 28 28 29 30 30 29 29 28 26 24 23 22 21 21 20 21 21
15 14 13 13 14 16 18 19 21 28 34 37 38 38 37 36 35 35 35 34 33 32 31 32 32 31 31 31 32 32 34 35 37 39 41 43 45 45 45 44 44 44 45 45 44 43 42 42 42 41 39 38 36 35 34 35 34 34 33 33 34 33 32 31 31 30 29 28 28 30 31 32 32 31 30 28 26 24 23 22 21 19 19 19 20
17 14 12 12 14 16 18 18 19 25 32 36 38 39 38 37 36 35 34 34 33 32 31 31 31 31 31 32 31 29 31 34 36 37 38 41 44 46 46 46 45 45 46 46 46 44 44 43 42 41 39 38 37 36 36 36 35 34 33 32 32 32 31 31 31 31 30 30 30 31 32 32 31 29 28 26 25 24 23 21 19 17 15 15 17
17 15 13 13 13 14 16 17 18 23 30 33 35 36 36 37 36 34 33 33 32 31 30 30 29 30 30 30 29 28 29 32 34 35 36 39 42 44 45 46 46 45 47 48 48 46 44 42 41 39 38 36 34 34 34 33 32 32 31 30 30 29 29 29 29 30 30 30 30 29 29 28 27 26 25 24 24 23 21 18 16 14 12 13 16
15 16 15 14 13 13 15 16 16 20 28 32 33 33 34 35 35 35 36 37 34 31 30 30 31 32 31 29 28 27 29 33 36 36 36 38 40 42 43 45 46 46 47 48 48 47 44 40 37 35 34 33 32 32 32 32 32 32 31 30 29 28 28 28 29 29 29 29 29 28 27 26 26 26 25 24 24 22 19 16 15 13 12 13 16
15 15 15 14 13 14 16 16 14 14 23 29 32 34 35 36 37 38 40 42 41 39 37 36 36 36 34 32 31 29 30 35 38 37 35 36 39 41 43 45 46 46 47 47 46 45 42 37 33 32 31 31 31 31 32 32 33 33 32 30 29 29 29 30 30 30 29 28 28 28 27 26 26 26 25 24 24 22 18 15 14 13 12 14 18
16 14 14 14 14 17 19 19 17 13 17 25 28 31 34 37 39 40 40 42 45 46 44 42 42 40 37 36 36 36 38 40 38 35 36 38 41 42 43 44 45 45 46 45 42 38 34 32 32 32 31 31 31 32 33 33 33 33 33 32 32 32 32 33 32 30 27 26 25 26 26 26 26 26 25 25 23 20 16 14 13 12 12 14 18
15 14 15 15 17 19 20 20 19 16 14 21 25 27 29 33 37 40 40 40 42 46 48 46 44 41 39 38 39 40 42 41 37 35 36 39 40 40 41 42 42 43 44 42 37 34 32 30 30 32 32 32 32 32 32 31 31 32 33 32 33 33 33 33 32 29 26 24 24 24 24 24 25 25 25 24 22 18 15 13 13 14 14 16 18
16 16 17 18 18 18 18 19 19 17 14 18 24 25 25 26 30 35 39 39 38 41 45 46 45 43 41 40 39 38 40 40 38 36 35 35 37 39 39 40 40 40 40 37 34 33 33 31 31 32 32 31 32 33 33 32 32 32 32 32 33 34 34 34 32 30 27 26 25 24 24 24 24 24 24 22 19 16 15 14 14 15 16 17 18
16 16 17 19 18 17 16 17 18 16 13 14 19 23 24 23 23 26 32 36 37 37 39 42 45 44 43 42 40 39 39 39 39 39 37 35 36 37 37 37 38 38 38 36 33 33 33 32 34 33 31 29 29 29 28 27 25 24 24 25 28 31 34 35 33 29 27 26 26 25 25 24 24 22 21 20 18 17 16 16 15 15 16 18 19
16 15 16 18 17 17 16 15 17 17 14 12 14 17 21 25 26 26 26 28 30 32 35 38 42 44 43 42 41 40 39 38 39 40 39 38 37 36 34 34 35 36 36 37 36 35 34 33 33 30 26 27 28 28 27 25 24 24 25 25 27 29 30 30 29 28 26 26 26 26 24 23 22 21 19 18 17 16 17 16 15 16 19 19 19
17 15 16 17 18 18 17 15 16 18 17 16 15 17 21 26 27 27 26 24 24 27 32 35 36 39 42 42 41 41 41 39 39 39 39 38 38 36 33 31 32 33 35 36 37 37 36 34 31 29 30 33 35 35 34 33 32 33 32 30 30 29 28 28 28 28 27 26 26 25 23 22 21 20 19 18 17 17 17 16 15 17 19 20 20
17 16 17 19 19 19 18 17 16 16 19 20 21 22 23 24 23 21 21 21 20 21 22 23 26 30 36 40 41 42 41 41 41 40 38 38 38 37 34 32 32 33 35 38 40 40 39 36 34 33 36 39 38 37 36 33 31 30 30 29 29 28 26 31 35 33 29 27 25 24 22 22 20 19 18 18 18 19 18 17 17 18 20 20 19
18 18 19 20 19 18 17 17 16 16 18 21 23 24 24 24 23 20 15 13 13 14 15 18 21 24 29 35 39 42 42 41 41 40 38 36 36 37 38 37 35 34 36 38 40 40 39 37 37 37 39 40 39 37 35 32 29 28 28 30 29 26 25 32 40 39 33 27 25 23 22 21 20 20 21 21 21 21 20 20 21 22 21 19 17
18 18 19 20 20 18 17 17 16 16 18 19 21 23 23 22 21 18 15 13 14 17 21 23 24 26 29 35 38 40 38 35 33 35 36 36 36 38 40 39 37 36 37 39 40 40 40 39 39 39 39 40 38 36 33 31 29 29 29 30 29 26 26 31 38 38 31 26 24 23 21 20 21 21 21 21 21 19 18 19 21 21 20 18 17
18 18 18 19 20 19 17 16 15 16 17 18 19 21 22 21 18 17 18 18 19 21 23 23 23 25 27 30 32 32 30 28 29 32 36 38 40 42 42 40 37 36 37 39 39 39 39 39 39 38 38 37 36 34 32 30 30 31 31 30 28 26 28 32 34 32 27 24 23 21 20 20 21 20 20 20 18 16 17 18 19 18 18 17 15
19 18 18 19 20 19 17 16 16 16 17 17 17 18 18 19 19 19 19 19 20 22 24 24 25 26 26 27 31 33 31 30 32 35 36 38 40 42 41 39 37 36 37 37 37 37 38 38 37 36 35 34 33 32 30 30 30 30 29 26 24 24 27 29 28 25 23 21 20 19 18 18 18 19 20 19 16 15 17 18 17 16 16 13 11
18 18 17 18 20 19 18 17 17 16 16 16 16 15 16 17 18 19 20 19 19 22 25 27 29 30 29 30 33 35 35 34 36 36 35 36 37 38 38 38 37 36 36 36 37 36 36 36 34 32 30 29 29 29 28 28 28 27 24 22 21 23 23 22 20 18 17 16 16 16 17 17 18 19 19 16 14 14 16 15 14 14 13 11 10
17 17 17 18 19 19 18 19 19 18 17 17 16 14 15 16 16 17 18 20 21 23 26 29 30 31 31 31 31 32 33 35 34 32 31 31 31 32 33 33 32 31 31 31 32 31 30 29 27 26 25 25 26 26 26 26 24 23 21 21 22 22 20 18 16 16 16 17 16 16 17 17 16 16 15 13 12 12 13 12 12 12 11 11 10
14 14 14 15 17 17 18 19 19 19 19 18 18 17 16 15 14 14 16 20 24 25 26 27 28 29 31 31 30 30 32 33 29 26 25 25 23 23 23 23 22 23 24 25 24 24 24 23 22 21 21 22 22 23 25 26 25 24 24 25 24 22 20 19 19 19 19 19 17 15 15 16 15 14 13 13 12 12 12 12 11 11 10 10 9
12 12 14 14 15 16 17 18 18 18 18 19 20 20 19 17 14 13 13 14 19 23 24 26 27 27 27 25 24 27 30 30 25 21 20 21 20 20 20 20 20 21 22 22 21 20 20 21 22 22 22 21 21 23 25 25 25 25 26 25 25 23 21 20 19 19 18 18 17 16 15 15 15 14 14 14 13 13 12 11 10 9 8 8 7
11 11 13 15 15 15 17 18 18 17 18 21 22 22 22 21 18 16 14 11 8 10 11 13 14 14 12 11 11 14 16 16 14 17 21 23 23 22 22 23 23 24 23 21 20 21 22 23 24 24 23 22 21 22 23 25 25 25 25 24 24 23 21 19 18 17 17 18 18 17 16 15 14 13 13 13 12 12 11 11 10 10 10 11 11
10 10 12 14 15 15 16 18 18 18 19 21 22 23 23 23 22 21 20 18 15 10 8 7 7 7 10 13 14 15 15 16 18 21 23 24 25 25 26 26 26 26 26 24 23 24 25 26 26 25 24 23 22 21 21 23 24 24 23 22 22 21 20 18 18 17 17 17 17 17 16 15 14 13 13 13 13 13 14 14 14 14 14 14 13
10 10 11 13 13 14 15 17 18 19 20 20 21 23 24 25 25 25 24 23 21 19 17 17 17 17 17 20 22 23 22 21 20 20 21 22 24 26 29 31 32 31 31 30 30 30 29 29 29 28 27 26 25 23 22 23 23 24 23 23 22 21 20 20 19 19 18 18 18 18 18 18 17 17 16 16 16 17 17 17 16 15 15 14 13
11 11 11 12 13 15 16 18 19 19 20 20 21 23 25 26 27 27 27 26 25 24 22 20 20 20 20 22 25 26 26 26 25 24 24 24 25 27 29 32 35 36 36 36 36 36 35 34 32 31 30 28 27 26 25 24 24 24 24 24 23 22 21 20 19 19 18 17 17 18 18 19 20 19 18 17 17 16 16 16 15 14 13 12 11
12 12 13 14 15 16 17 19 20 20 20 21 22 24 26 26 26 26 27 27 27 27 25 23 21 20 22 24 27 29 30 30 30 29 28 27 28 30 31 31 33 36 38 39 39 38 37 36 35 33 31 29 28 27 26 25 25 25 25 24 23 21 20 19 18 17 16 15 15 16 16 17 18 17 16 15 14 14 14 13 12 12 11 10 9
14 14 14 15 16 17 18 19 21 21 21 21 22 24 26 27 27 27 26 26 26 27 26 25 23 22 22 23 26 30 32 32 31 32 32 31 31 33 34 33 32 34 37 39 39 38 38 36 35 35 33 31 28 26 25 25 25 25 24 23 22 20 19 18 17 15 14 13 13 13 14 14 15 15 14 14 13 13 13 13 12 11 10 10 10
14 15 16 17 17 18 18 19 20 21 22 22 23 24 24 25 27 29 29 27 25 25 25 25 23 21 21 21 23 27 30 31 29 30 31 32 33 34 35 33 31 33 36 37 38 37 37 36 35 34 33 30 26 24 24 23 23 22 21 20 18 17 17 17 16 15 14 13 13 12 12 12 13 14 14 14 14 14 14 13 13 12 11 11 10
Wind_Direction
201 203 204 205 206 207 209 211 213 214 215 217 220 221 221 221 223 225 226 228 228 228 228 227 227 227 227 229 231 232 234 232 230 232 236 240 242 242 240 236 235 239 242 243 242 240 242 245 247 249 254 262 269 269 266 261 255 253 251 254 265 277 281 271 259 278 300 308 312 319 323 323 323 328 334 337 341 344 343 345 349 350 351 349 347
202 203 204 205 207 208 209 211 213 215 215 216 219 220 221 221 223 224 225 227 228 229 229 229 229 229 229 231 231 232 234 235 234 234 235 238 240 241 240 238 238 239 241 243 245 244 244 245 246 246 248 254 260 262 262 262 259 255 250 253 264 271 273 273 269 276 293 302 309 313 317 320 321 325 331 333 336 339 340 343 349 352 352 348 346
203 204 205 206 208 209 210 211 213 215 216 218 219 220 221 222 222 223 225 226 227 228 229 230 231 231 231 233 234 234 235 237 237 237 237 237 238 240 240 240 241 242 242 244 247 248 247 248 247 246 245 249 253 256 259 259 258 258 258 261 267 270 271 271 270 271 282 294 302 306 311 316 316 320 326 327 330 333 334 338 345 350 351 348 344
203 204 205 208 209 210 211 212 212 214 216 219 221 221 222 222 223 224 225 226 227 228 230 232 232 231 232 233 235 237 238 238 239 240 240 240 240 241 242 243 243 245 246 247 249 249 249 250 250 248 247 248 249 251 254 255 256 257 260 263 267 270 270 269 270 273 277 283 292 299 305 310 311 315 320 323 325 328 330 334 341 347 350 348 344
203 204 206 208 209 210 211 212 212 214 217 219 222 223 223 224 225 225 226 227 229 231 232 232 232 231 232 233 235 238 240 241 240 240 241 242 242 243 244 245 246 247 248 249 249 250 250 251 252 251 252 252 251 250 250 252 255 257 260 263 266 269 270 269 272 276 274 276 285 294 301 303 306 310 315 318 321 324 328 333 338 343 347 347 345
203 204 206 207 209 210 211 212 213 215 217 219 221 223 224 225 226 227 229 230 231 232 233 233 232 231 233 234 236 238 240 241 241 242 242 242 242 243 245 246 248 249 250 249 248 249 250 251 253 253 254 255 254 251 250 252 255 257 260 264 267 270 271 271 273 276 275 276 282 289 295 299 301 305 310 314 317 321 327 331 335 341 343 344 343
203 204 206 207 209 211 211 212 213 215 217 219 221 223 224 225 227 228 230 231 232 232 233 233 233 233 234 235 236 238 239 240 241 242 242 242 241 242 244 246 249 250 251 250 248 248 249 250 252 254 255 256 257 254 252 253 256 259 262 266 270 271 271 272 273 274 275 277 280 284 289 294 296 299 303 308 312 318 325 328 330 336 341 340 337
203 204 206 208 210 212 213 213 214 216 218 220 221 223 224 225 227 228 229 230 231 232 232 233 234 235 235 235 236 237 238 239 239 240 241 241 241 242 243 245 248 250 251 252 250 250 250 251 252 254 254 256 257 258 257 257 258 260 263 266 268 269 270 271 272 272 273 275 278 282 285 289 291 294 299 305 311 318 325 325 323 329 335 334 332
203 204 206 208 211 212 213 214 215 216 218 219 221 222 223 225 226 227 228 229 231 232 232 233 234 235 235 236 236 235 235 237 238 239 239 239 239 240 242 243 245 248 250 251 252 252 252 253 254 255 254 255 257 259 260 261 262 263 265 266 267 269 270 271 270 270 270 271 275 279 282 285 288 292 298 304 311 315 319 320 319 325 330 327 327
202 204 206 210 212 212 213 214 215 216 217 218 220 221 222 224 225 226 227 228 230 231 231 231 232 234 235 235 234 234 234 235 237 239 239 239 239 239 240 242 244 246 248 250 251 253 254 255 256 257 258 258 258 260 261 263 264 265 267 268 269 270 270 270 269 268 268 268 272 276 278 281 286 291 296 303 309 311 313 316 317 323 326 323 323
202 204 207 210 211 212 213 213 214 216 217 218 220 221 222 222 223 225 226 228 229 230 230 230 231 232 234 234 234 233 233 234 236 238 240 240 239 237 238 241 242 243 245 247 249 252 254 256 257 259 259 260 261 262 263 264 265 267 268 269 269 270 270 269 269 269 268 267 270 273 272 276 284 289 294 300 306 308 311 314 314 316 319 315 312
203 205 208 210 211 212 212 213 214 216 217 219 220 221 221 221 222 224 225 227 228 228 229 230 230 231 232 233 234 234 234 235 236 238 239 240 239 238 237 239 240 242 244 246 248 251 253 255 257 258 260 260 262 263 264 265 267 268 270 270 270 270 270 268 268 269 269 267 270 273 271 274 282 287 291 297 301 304 307 308 308 307 306 299 296
204 206 208 209 210 211 212 213 214 216 217 219 220 220 220 221 221 222 224 226 227 227 228 229 230 231 230 231 233 234 236 237 237 238 239 240 240 238 236 237 239 242 244 246 248 250 251 254 256 258 260 262 262 262 263 265 267 269 270 271 271 270 269 269 269 269 270 268 267 271 273 274 278 283 289 293 295 298 300 301 301 301 297 293 295
207 208 208 209 210 211 212 212 213 216 218 219 219 219 220 221 222 223 224 224 225 226 227 228 229 230 230 231 233 234 236 238 238 239 239 240 240 238 235 236 238 240 244 247 249 250 252 253 254 258 261 262 262 262 262 264 266 268 270 271 271 271 270 269 269 270 271 269 266 270 275 275 276 282 288 289 289 291 294 297 298 297 295 295 298
207 212 212 213 211 210 211 212 213 215 217 217 218 218 219 221 222 223 223 223 224 225 227 228 229 230 231 231 232 234 236 238 239 239 240 240 240 238 235 234 235 238 242 245 248 251 253 253 254 257 261 262 263 263 263 264 265 266 268 270 272 273 272 271 270 270 273 274 274 275 277 278 278 282 286 285 285 289 292 293 293 294 295 296 297
203 210 217 220 218 215 212 211 212 215 216 216 217 218 219 220 221 222 223 223 225 226 226 227 228 229 230 231 231 234 236 237 238 239 241 241 239 237 235 233 233 236 239 243 246 249 251 252 253 255 258 261 263 263 263 263 263 263 265 267 270 272 273 273 272 271 274 278 281 282 283 284 283 283 283 283 284 286 288 286 286 288 288 288 290
207 212 220 226 227 225 221 215 213 214 214 215 217 218 219 220 221 221 221 222 224 225 226 227 228 228 229 229 230 232 235 237 238 239 240 240 238 235 233 232 232 234 238 241 244 247 249 250 251 253 256 260 263 263 263 261 259 259 261 264 267 270 273 275 274 273 274 277 280 284 286 287 286 284 283 282 281 281 279 277 281 284 278 271 277
214 218 222 227 233 235 231 224 218 216 215 216 217 219 219 220 221 220 219 220 222 224 225 226 227 228 228 229 229 231 234 236 237 238 240 239 237 234 232 231 231 233 237 240 242 245 247 249 251 251 254 258 262 263 262 259 257 257 258 260 262 266 271 274 274 275 276 278 279 281 282 283 283 282 282 281 278 275 272 274 281 281 269 258 262
258 234 224 222 226 235 240 235 227 221 219 219 219 219 220 220 221 220 219 220 222 223 224 224 226 227 228 229 230 231 234 236 236 237 239 239 237 234 231 229 229 232 235 239 241 243 245 247 249 249 252 257 261 262 261 259 257 257 256 255 256 261 268 272 272 275 277 278 280 281 281 282 282 281 282 280 276 271 270 275 282 278 267 261 260
326 302 264 232 219 219 233 243 235 227 224 222 221 221 221 221 220 219 218 220 221 223 223 223 224 227 227 229 230 230 232 234 235 237 238 238 237 234 229 227 228 232 235 237 240 242 244 245 247 248 251 254 258 260 260 259 257 257 256 251 251 260 268 271 271 274 277 278 280 282 282 283 283 282 280 278 273 269 270 276 281 279 273 268 261
331 314 296 281 254 229 230 245 239 230 227 225 223 222 222 220 219 218 217 218 219 221 222 222 223 226 227 228 229 230 232 233 234 235 237 237 237 234 229 227 229 232 234 237 239 241 243 244 246 248 251 253 255 258 259 259 258 257 255 253 256 264 268 269 270 272 274 275 277 278 278 279 278 276 275 274 272 271 273 275 276 276 276 276 269
334 321 308 302 297 286 269 257 243 231 227 225 222 222 221 220 219 218 216 216 217 219 221 221 222 224 226 227 229 230 232 232 233 234 236 236 237 235 231 230 231 232 233 236 239 241 244 245 247 250 253 254 256 258 259 259 257 256 256 257 260 263 264 264 266 268 268 270 271 271 270 270 270 269 268 268 269 270 271 270 268 270 275 279 278
332 327 324 317 311 303 290 271 247 231 226 223 221 220 220 218 218 217 215 214 215 218 220 220 221 223 225 227 228 229 231 232 233 234 235 236 237 237 235 234 234 233 232 234 239 242 245 247 249 252 255 257 259 261 262 261 259 257 259 259 259 260 261 261 262 263 264 264 263 263 264 264 264 264 263 265 268 269 269 268 268 272 274 277 279
331 328 328 323 314 305 296 280 254 233 224 221 219 218 217 215 215 215 214 213 213 216 218 218 219 222 224 226 228 228 229 231 233 234 235 236 237 238 238 237 236 235 234 236 239 242 245 247 250 253 256 258 260 262 263 263 262 261 262 261 259 258 257 257 258 259 260 259 257 257 259 261 261 262 264 268 270 270 269 269 271 274 273 271 274
319 319 324 321 311 301 296 285 261 238 225 218 216 215 214 213 212 212 213 212 213 215 216 217 218 221 223 226 227 227 227 229 231 233 234 236 237 239 239 239 238 237 236 237 240 242 245 248 251 254 257 258 259 260 260 262 263 263 264 262 259 257 255 256 257 256 254 253 252 254 257 260 263 265 268 270 270 268 268 270 273 274 271 266 265
319 317 319 318 308 299 295 289 269 244 228 219 215 214 212 210 209 210 210 211 213 214 214 215 217 220 223 225 226 225 226 227 229 231 232 234 236 238 239 240 240 240 239 240 241 243 245 248 250 252 255 256 256 257 258 260 262 263 263 261 259 258 257 256 255 253 251 251 252 253 258 262 266 268 268 267 264 265 268 272 276 277 269 260 256
321 314 312 311 302 295 296 294 276 249 231 220 216 215 212 210 209 208 208 209 212 214 214 215 216 219 222 225 225 225 225 227 228 229 229 231 233 235 236 238 239 238 238 238 239 240 242 245 247 250 252 254 255 257 258 261 261 261 260 258 257 257 257 256 255 254 253 254 255 257 261 264 265 265 265 263 263 267 271 274 277 276 267 254 245
314 308 307 302 288 284 291 297 284 251 230 221 216 214 211 210 210 210 211 211 211 212 214 215 217 219 220 221 220 222 225 227 227 226 225 227 230 232 233 234 235 236 237 238 239 239 241 242 245 247 249 251 252 253 254 255 255 255 255 254 253 253 253 253 254 254 254 256 256 258 260 260 260 261 262 262 264 268 272 274 276 275 267 249 236
321 315 310 297 288 294 301 307 305 264 231 221 218 217 214 212 212 214 216 216 216 215 215 216 218 219 220 218 216 216 221 227 229 228 226 227 229 231 232 234 234 235 238 240 240 238 237 238 240 243 244 246 247 249 249 250 250 250 249 249 249 249 249 248 249 251 254 255 254 255 257 257 258 260 261 261 264 268 270 271 271 268 257 242 232
331 325 320 308 303 310 312 316 321 298 243 224 220 220 220 219 217 218 220 221 222 222 221 222 223 222 220 221 220 220 224 229 231 229 228 230 232 233 235 237 238 239 240 240 236 234 233 234 236 238 239 241 242 244 245 245 245 245 245 245 245 244 244 245 246 247 249 251 252 254 255 253 253 256 256 257 260 262 264 265 262 254 244 234 227
335 332 331 323 316 317 314 314 321 314 268 234 223 220 222 223 223 223 224 225 226 226 226 228 229 226 224 224 225 227 229 231 232 232 231 231 232 234 236 238 240 240 240 236 231 228 229 231 233 236 237 238 239 241 243 243 242 242 242 242 242 241 240 240 241 240 241 244 247 250 250 248 249 251 251 251 252 253 255 254 248 243 237 229 224
338 334 333 328 323 319 314 310 313 310 281 244 228 221 220 223 225 226 227 227 228 229 229 230 231 230 229 229 228 229 230 231 232 234 234 233 234 235 236 237 239 239 237 232 228 228 228 228 232 235 234 235 238 241 242 242 241 240 239 237 236 237 236 236 237 237 238 242 246 247 247 247 247 247 245 244 243 244 244 242 240 240 234 225 224
342 334 332 332 329 323 318 311 306 301 284 252 234 226 221 221 225 229 229 229 230 231 231 231 231 232 233 233 232 233 234 233 233 235 234 234 235 237 237 238 238 236 231 226 225 228 229 229 232 234 233 234 238 242 243 245 246 246 245 243 243 243 241 239 238 237 239 243 246 247 248 247 245 243 240 238 238 239 238 236 236 236 229 222 220
348 340 335 336 336 332 327 318 306 297 285 262 244 234 226 222 223 226 228 229 230 232 233 232 232 232 233 234 235 236 236 237 237 237 235 234 235 237 237 235 232 230 228 226 225 227 229 230 231 232 231 232 235 237 238 241 242 242 243 248 255 259 258 252 244 240 242 245 246 246 248 247 243 238 235 233 233 235 234 231 228 226 222 218 214
351 349 345 345 344 340 334 327 315 302 286 268 252 241 232 228 226 227 227 226 226 229 232 233 233 233 232 233 235 236 236 236 237 239 238 236 235 233 230 225 222 222 223 224 225 227 229 229 228 226 227 230 232 233 233 233 231 229 229 233 241 251 261 265 259 251 246 245 245 246 248 247 242 238 234 230 227 224 220 217 220 223 220 216 212
352 355 354 351 348 344 339 333 326 312 293 277 265 252 242 238 237 238 239 238 234 234 236 237 237 237 235 233 233 234 235 234 234 235 237 237 233 228 222 218 218 219 220 222 224 226 228 228 225 224 227 231 233 233 232 231 230 228 227 227 231 239 255 267 268 262 252 246 246 247 246 245 241 235 229 225 220 215 210 210 217 221 219 215 214
352 356 357 354 351 347 342 336 328 317 302 288 278 269 261 253 248 245 247 247 239 233 233 236 236 237 237 235 234 233 233 233 232 232 233 233 231 227 225 223 222 221 222 224 225 225 226 226 225 225 229 232 233 232 232 230 229 229 230 233 235 238 247 258 261 259 252 247 246 245 242 239 235 230 225 218 209 202 201 206 209 209 210 213 215
351 355 357 355 354 352 349 342 333 323 314 303 292 284 277 271 262 249 235 227 223 222 224 227 225 225 229 232 232 231 231 231 230 230 230 230 228 227 226 225 224 223 225 228 228 226 225 225 225 225 228 231 232 231 230 227 227 228 231 234 238 239 242 247 250 250 247 246 246 242 235 229 228 226 220 209 199 196 202 208 205 200 202 210 215
349 355 357 357 358 359 356 350 342 334 327 319 308 296 284 276 269 251 232 225 225 226 228 230 229 228 229 230 228 226 225 225 225 226 227 228 228 227 226 225 224 225 227 229 229 227 226 225 225 224 226 228 229 230 228 227 228 230 231 230 232 235 238 240 241 241 240 240 239 234 224 219 217 212 201 193 193 200 206 206 203 204 209 214 218
348 354 356 357 1 2 359 355 352 347 340 331 323 312 296 280 267 253 242 237 235 235 235 236 236 235 233 230 225 221 218 219 224 226 225 225 226 226 225 224 223 224 226 228 228 228 227 227 225 223 223 225 227 228 229 229 229 230 230 230 232 233 233 231 231 233 234 235 233 226 216 207 197 189 186 188 193 198 199 198 200 205 208 209 209
348 353 357 0 3 3 3 0 356 351 346 341 336 328 316 299 279 261 249 245 245 245 244 243 242 239 236 233 229 223 219 221 225 227 225 225 225 224 223 224 224 224 225 227 228 228 227 226 223 221 221 222 224 226 228 229 228 226 224 222 221 221 220 218 220 222 222 219 215 208 200 193 185 181 182 182 180 181 187 190 192 193 195 196 198
348 353 359 3 4 5 6 3 359 355 354 353 350 344 336 322 304 281 259 246 245 248 249 248 248 245 241 238 235 230 226 227 230 229 226 224 223 221 220 221 221 221 221 222 223 223 221 219 216 213 212 212 213 215 216 216 214 211 205 199 198 200 199 196 193 190 187 185 184 182 179 178 177 175 172 169 169 174 180 182 182 185 189 193 195
349 355 2 6 8 9 7 5 4 3 3 1 360 357 352 342 328 309 282 256 245 246 250 252 252 251 248 243 238 231 229 230 231 228 220 213 207 203 202 203 204 204 205 208 210 211 207 201 195 190 190 191 193 195 197 196 195 192 188 184 182 183 181 176 172 171 171 170 169 167 166 167 167 167 165 165 167 170 172 175 178 182 186 190 193
354 1 8 11 14 13 10 9 8 8 10 15 15 12 8 4 357 346 323 280 251 243 244 245 246 246 246 243 232 222 219 222 220 208 191 178 171 170 173 176 178 179 182 187 190 189 184 177 172 170 172 173 174 176 180 182 181 181 180 176 173 172 172 170 169 170 171 169 164 160 158 158 158 159 159 160 162 164 166 169 172 171 170 171 170
4 10 13 14 17 17 15 14 13 12 18 26 27 24 21 18 16 15 10 349 302 259 240 234 232 228 223 214 200 191 191 191 179 159 151 152 155 158 160 160 159 159 161 164 164 163 159 158 160 164 166 162 159 162 168 170 170 170 170 168 167 166 165 166 166 167 168 167 162 157 153 151 151 153 154 156 159 160 156 154 155 153 147 143 139
17 25 24 19 19 19 18 19 18 18 25 32 34 34 33 29 25 26 27 24 18 23 50 77 92 107 117 118 116 116 119 122 124 128 135 142 146 146 145 143 141 140 139 138 138 140 142 143 144 145 143 143 145 148 149 150 153 155 155 156 158 156 154 155 156 156 158 159 156 153 150 147 146 148 150 150 150 148 143 141 143 142 138 135 131
28 38 37 31 28 26 25 26 25 24 28 35 40 42 42 41 37 34 33 33 34 37 48 64 74 79 86 95 99 99 99 101 102 105 112 118 121 124 127 129 129 126 124 122 122 122 122 123 124 122 120 123 131 135 132 131 135 139 140 141 143 141 141 144 146 146 148 151 151 149 149 145 140 139 140 139 138 135 132 129 129 128 127 126 123
37 45 48 44 41 37 33 33 33 31 31 36 43 47 49 49 48 46 42 41 40 39 40 49 63 72 79 86 91 94 94 93 89 87 89 93 97 101 106 112 117 119 118 116 115 114 112 111 112 112 110 110 112 114 116 117 121 125 126 126 127 129 131 133 134 135 138 142 143 144 143 139 135 134 133 132 130 129 126 124 123 123 122 122 120
41 47 52 52 51 48 44 42 41 39 38 39 45 50 53 53 52 51 51 50 51 50 45 43 48 61 74 83 89 92 93 93 92 91 90 89 91 94 96 97 102 107 110 109 109 110 110 108 107 107 108 107 107 109 112 114 115 116 116 116 118 122 125 126 126 127 129 133 136 138 139 137 135 133 132 130 130 129 127 125 124 124 123 121 119
45 48 53 55 56 55 53 51 50 48 46 46 47 51 56 57 56 53 52 52 55 58 57 53 51 55 65 76 86 91 93 93 95 97 98 96 95 97 99 98 98 100 103 105 106 108 109 109 109 108 108 108 108 109 111 110 109 109 110 112 115 118 120 121 121 122 124 126 128 130 134 135 133 131 129 129 129 128 127 126 126 125 123 120 117
48 50 54 57 59 58 56 56 55 53 52 53 52 52 56 60 62 60 56 52 52 57 62 61 59 59 64 71 79 86 92 94 94 95 97 99 98 98 98 98 98 100 102 104 105 106 108 110 110 109 108 108 107 107 107 105 104 105 107 109 111 112 113 113 113 113 116 119 120 121 125 126 124 123 122 123 123 123 121 119 118 116 113 112 109